EHI
0 0 0 0 0 0 0 0 0 0 0 0 0 0 0 0 0 0 0 0 0 0 0 0 0 0 0 0 0 0 0 0 0 0 0 0 0 0 0 0 0 0 0
0 0 0 0 0 0 0 0 0 0 0 0 0 0 0 0 0 0 0 0 0 0 0 0 0 0 0 0 0 0 0 0 0 0 0 0 0 0 0 0 0 0 0
0 0 0 0 0 0 0 0 0 0 0 0 0 0 0 0 0 0 0 0 0 0 0 0 0 0 0 0 0 0 0 0 0 0 0 0 0 0 0 0 0 0 0
0 0 0 0 0 0 0 0 0 0 0 0 0 0 0 0 0 0 0 0 0 0 0 0 0 0 0 0 0 0 0 0 0 0 0 0 0 0 0 0 0 0 0
0 0 0 0 0 0 0 0 0 0 0 0 0 0 0 0 0 0 0 0 0 0 0 0 0 0 0 0 0 0 0 0 0 0 0 0 0 0 0 0 0 0 0
0 0 0 0 0 0 0 0 0 0 0 0 0 0 0 0 0 0 0 0 0 0 0 0 0 0 0 0 0 0 0 0 0 0 0 0 0 0 0 0 0 0 0
0 0 0 0 0 0 0 0 0 0 0 0 0 0 0 0 0 0 0 0 0 0 0 0 0 0 0 0 0 0 0 0 0 0 0 0 0 0 0 0 0 0 0
0 0 0 0 0 0 0 0 0 0 0 0 0 0 0 0 0 0 0 0 0 0 0 0 0 0 0 0 0 0 0 0 0 0 0 0 0 0 0 0 0 0 0
0 0 0 0 0 0 0 0 0 0 0 0 0 0 0 0 0 0 0 0 0 0 0 0 0 0 0 0 0 0 0 0 0 0 0 0 0 0 0 0 0 0 0
0 0 0 0 0 0 0 0 0 0 0 0 0 0 0 0 0 0 0 0 0 0 0 0 0 0 0 0 0 0 0 0 0 0 0 0 0 0 0 0 0 0 0
0 0 0 0 0 0 0 0 0 0 0 0 0 0 0 0 0 0 0 0 0 0 0 0 0 0 0 0 0 0 0 0 0 0 0 0 0 0 0 0 0 0 0
0 0 0 0 0 0 0 0 0 0 0 0 0 0 0 0 0 0 0 0 0 0 0 0 0 0 0 0 0 0 0 0 0 0 0 0 0 0 0 0 0 0 0
0 0 0 0 0 0 0 0 0 0 0 0 0 0 0 0 0 0 0 0 0 0 0 0 0 0 0 0 0 0 0 0 0 0 0 0 0 0 0 0 0 0 0
0 0 0 0 0 0 0 0 0 0 0 0 0 0 0 0 0 0 0 0 0 0 0 0 0 0 0 0 0 0 0 0 0 0 0 0 0 0 0 0 0 0 0
0 0 0 0 0 0 0 0 0 0 0 0 0 0 0 0 0 0 0 0 0 0 0 0 0 0 0 0 0 0 0 0 0 0 0 0 0 0 0 0 0 0 0
0 0 0 0 0 0 0 0 0 0 0 0 0 0 0 0 0 0 0 0 0 0 0 0 0 0 0 0 0 0 0 0 0 0 0 0 0 0 0 0 0 0 0
0 0 0 0 0 0 0 0 0 0 0 0 0 0 0 0 0 0 0 0 0 0 0 0 0 0 0 0 0 0 0 0 0 0 0 0 0 0 0 0 0 0 0
0 0 0 0 0 0 0 0 0 0 0 0 0 0 0 0 0 0 0 0 0 0 0 0 0 0 0 0 0 0 0 0 0 0 0 0 0 0 0 0 0 0 0
0 0 0 0 0 0 0 0 0 0 0 0 0 0 0 0 0 0 0 0 0 0 0 0 0 0 0 0 0 0 0 0 0 0 0 0 0 0 0 0 0 0 0
0 0 0 0 0 0 0 0 0 0 0 0 0 0 0 0 0 0 0 0 0 0 0 0 0 0 0 0 0 0 0 0 0 0 0 0 0 0 0 0 0 0 0
0 0 0 0 0 0 0 0 0 0 0 0 0 0 0 0 0 0 0 0 0 0 0 0 0 0 0 0 0 0 0 0 0 0 0 0 0 0 0 0 0 0 0
0 0 0 0 0 0 0 0 0 0 0 0 0 0 0 0 0 0 0 0 0 0 0 0 0 0 0 0 0 0 0 0 0 0 0 0 0 0 0 0 0 0 0
0 0 0 0 0 0 0 0 0 0 0 0 0 0 0 0 0 0 0 0 0 0 0 0 0 0 0 0 0 0 0 0 0 0 0 0 0 0 0 0 0 0 0
0 0 0 0 0 0 0 0 0 0 0 0 0 0 0 0 0 0 0 0 0 0 0 0 0 0 0 0 0 0 0 0 0 0 0 0 0 0 0 0 0 0 0
0 0 0 0 0 0 0 0 0 0 0 0 0 0 0 0 0 0 0 0 0 0 0 0 0 0 0 0 0 0 0 0 0 0 0 0 0 0 0 0 0 0 0
0 0 0 0 0 0 0 0 0 0 0 0 0 0 0 0 0 0 0 0 0 0 0 0 0 0 0 0 0 0 0 0 0 0 0 0 0 0 0 0 0 0 0
Wind_Speed
2 2 2 2 2 2 3 3 4 4 5 6 6 7 7 7 6 6 5 11 14 16 17 16 16 16 16 16 15 15 14 13 13 13 12 12 11 11 10 10 9 8 7
2 2 3 2 3 3 3 3 4 5 5 5 6 7 7 7 7 7 6 7 12 14 16 17 17 17 17 17 17 16 15 15 15 14 14 13 13 12 12 11 10 10 9
3 3 2 3 3 3 3 3 4 4 4 4 6 6 6 6 6 7 7 5 6 11 14 17 18 18 18 18 18 18 17 16 16 16 15 15 14 14 14 13 12 11 11
4 3 3 3 3 3 3 3 3 4 4 5 5 5 5 5 7 7 6 6 5 6 9 15 16 17 17 18 19 19 18 17 17 17 17 16 16 15 15 15 14 13 13
4 3 3 3 3 3 2 3 3 3 4 4 5 4 4 5 6 6 6 7 7 6 5 8 13 14 15 17 19 19 19 18 17 17 17 17 17 16 16 16 16 15 14
4 3 2 3 3 2 2 3 4 3 3 3 4 4 4 5 4 5 7 6 6 6 6 6 6 8 12 16 18 19 19 18 17 16 17 17 17 17 17 17 17 16 16
5 3 3 3 3 2 3 3 3 4 3 2 2 3 3 4 5 5 5 5 5 6 5 6 5 5 6 12 16 18 19 19 18 17 16 17 17 17 18 18 18 17 17
6 4 4 3 3 2 3 3 2 2 2 1 1 2 2 2 3 4 4 5 5 4 5 6 6 6 6 5 8 15 18 19 18 18 17 17 17 17 17 17 17 18 17
6 5 5 3 3 2 3 3 3 2 2 2 1 1 2 2 2 2 3 3 3 3 4 4 5 6 6 6 6 9 13 16 18 19 18 18 17 18 18 18 18 17 17
6 6 5 4 4 3 3 3 3 2 2 2 2 1 2 1 1 2 1 1 2 3 4 4 4 5 5 5 6 7 9 11 16 18 18 18 18 18 19 19 18 18 17
6 7 6 5 5 3 3 3 3 3 2 2 2 1 2 2 1 3 3 2 2 2 3 4 3 3 3 3 3 5 6 9 13 16 18 19 19 19 19 18 18 18 18
4 7 7 6 5 4 4 4 3 3 3 3 2 1 1 1 1 2 3 3 3 3 3 3 2 2 2 2 4 7 7 9 12 15 16 16 16 16 17 17 17 17 17
4 6 6 6 5 5 5 4 4 4 4 3 2 2 2 2 2 2 3 3 3 3 2 1 1 1 2 3 4 8 8 10 12 14 16 16 15 14 14 15 17 16 16
4 5 6 6 6 6 6 5 4 4 4 4 5 4 3 3 3 2 2 3 4 3 2 2 1 3 3 4 7 8 6 9 11 13 14 14 13 13 13 13 15 16 15
4 5 6 6 6 7 7 5 4 5 5 5 5 5 4 4 4 4 3 3 3 4 3 1 1 3 4 4 7 6 6 10 11 12 12 12 12 12 12 12 13 13 13
4 5 6 6 6 7 7 6 5 5 5 5 4 5 5 4 4 4 3 3 3 3 4 2 3 4 6 6 9 7 6 11 10 11 11 10 10 11 11 11 11 12 13
4 5 5 5 6 6 6 6 6 6 6 6 5 5 5 5 4 4 3 3 3 2 4 4 3 5 5 6 7 6 6 5 6 10 11 10 11 10 10 11 11 12 12
4 4 4 5 5 5 5 5 5 5 5 5 5 5 5 4 5 4 3 4 3 3 3 6 4 4 5 6 7 7 6 6 5 10 11 11 11 10 10 11 11 10 11
3 4 4 4 4 4 4 4 4 4 4 4 4 4 4 4 4 3 4 3 3 3 3 4 5 4 4 5 7 7 7 6 6 8 11 10 10 11 11 11 11 11 10
2 3 3 3 3 3 3 3 3 3 3 3 3 3 3 3 3 3 3 3 3 3 3 3 4 4 4 5 5 6 7 5 6 7 8 8 10 12 12 13 12 11 11
2 2 2 3 3 2 2 2 2 2 3 3 3 3 4 5 7 5 4 4 4 3 3 4 4 5 5 5 6 6 7 7 6 4 5 5 6 5 7 10 11 12 12
1 1 2 2 3 3 4 4 2 2 2 2 3 3 4 5 7 9 10 9 7 5 5 4 4 6 6 6 5 6 7 7 6 4 5 7 5 6 6 5 11 14 13
0 1 1 1 2 3 5 5 4 1 1 2 3 3 4 5 7 4 7 9 8 10 9 6 5 6 7 6 6 7 7 7 8 6 6 8 5 7 7 8 14 15 15
1 1 1 1 2 4 5 5 4 1 1 2 3 3 3 4 5 6 4 4 4 5 7 5 4 6 6 6 6 7 8 8 7 5 4 6 6 6 8 7 12 15 15
1 1 1 2 2 4 6 5 4 1 2 3 3 3 4 4 9 11 6 5 6 5 8 10 11 11 13 14 11 6 6 6 8 5 2 4 5 6 7 7 8 12 14
2 2 2 2 2 3 6 6 5 1 2 3 3 4 7 8 10 11 5 5 7 6 6 6 7 9 8 9 11 6 5 6 6 6 2 3 4 5 7 5 5 5 7
Wind_Direction
296 289 285 278 271 261 248 247 243 241 237 230 226 223 221 220 220 220 225 225 230 235 237 236 234 231 228 227 227 226 225 225 225 224 224 223 223 225 226 225 226 229 232
301 292 285 278 274 267 256 248 247 243 241 236 235 231 228 224 223 223 226 229 230 233 238 239 238 236 232 231 230 229 226 227 228 228 228 226 225 226 227 227 226 229 232
302 292 281 277 275 273 266 260 256 250 245 239 239 237 234 230 227 226 226 227 229 231 235 240 241 239 237 236 234 232 229 228 228 229 229 228 227 226 227 227 226 228 229
312 298 290 285 283 276 265 262 254 253 249 244 241 239 234 232 234 232 226 226 227 230 231 237 241 243 242 242 241 238 234 230 228 229 229 227 226 227 228 229 227 227 228
327 309 299 301 298 284 277 275 267 256 254 253 249 242 234 232 235 235 229 228 227 226 226 234 237 241 244 246 246 245 242 237 233 231 230 228 226 227 229 230 228 227 228
336 327 319 317 312 298 289 282 273 265 259 260 263 255 244 241 235 233 231 227 225 224 225 231 233 240 242 246 248 248 246 243 237 235 233 231 229 228 230 231 229 228 228
341 336 330 324 323 303 295 287 273 273 267 277 271 273 259 241 238 238 234 228 227 224 221 226 229 233 241 242 245 248 249 247 244 241 239 237 233 231 232 232 231 229 229
349 348 336 328 331 316 314 313 310 282 272 242 238 273 278 278 253 239 232 230 232 226 226 227 229 232 239 240 241 242 246 250 250 247 243 242 239 236 235 234 233 230 228
357 354 348 344 348 346 331 326 328 302 286 274 238 224 246 259 306 279 244 235 236 233 238 241 240 242 244 244 247 243 244 247 251 252 249 244 241 239 238 238 236 234 230
358 357 357 360 359 354 349 342 345 323 303 295 300 287 265 263 267 296 296 270 260 249 250 252 253 252 250 251 254 255 251 247 250 254 255 252 246 243 243 241 239 237 233
2 3 3 4 360 353 351 354 350 348 326 311 304 301 286 293 259 264 283 303 299 268 268 263 260 261 264 272 280 293 282 265 261 261 260 258 254 249 246 244 242 239 236
0 4 3 4 0 355 350 350 355 2 348 338 331 338 339 321 320 287 277 284 284 286 284 269 263 269 286 291 294 299 287 276 271 271 269 268 266 259 253 250 248 243 238
0 358 4 4 3 358 358 1 10 10 6 1 357 347 355 352 340 310 290 294 290 288 279 285 302 335 339 329 317 317 294 286 276 274 275 276 277 275 266 256 253 248 242
358 359 6 11 12 11 12 16 25 21 23 18 17 12 11 7 3 353 324 308 298 290 273 277 9 18 355 343 341 336 320 314 297 285 281 282 285 284 279 268 257 250 245
10 15 17 19 18 21 21 22 27 22 26 28 26 24 21 11 8 6 356 338 302 290 283 309 349 5 348 337 341 336 329 327 317 299 289 288 288 287 281 274 265 253 245
17 19 23 23 24 26 28 35 33 26 36 30 30 34 28 17 14 11 1 351 339 296 285 324 342 342 340 338 340 335 326 330 326 321 310 299 292 288 285 277 268 258 246
21 23 25 27 27 27 27 38 40 38 40 33 31 36 29 24 21 10 6 4 350 324 286 300 319 327 329 331 328 323 318 314 312 318 317 311 300 295 290 286 279 270 253
22 23 28 33 31 29 30 36 37 36 39 34 27 30 21 16 20 12 11 4 351 338 307 303 312 323 323 326 321 320 323 320 314 316 318 316 310 305 300 293 286 281 266
22 23 30 31 27 25 29 30 36 37 38 32 23 28 14 10 10 2 3 356 340 337 325 307 311 319 315 328 328 326 324 322 323 324 323 318 318 319 310 300 293 284 275
29 20 19 18 17 18 23 21 31 34 31 25 16 17 8 0 351 343 349 344 336 334 330 319 312 317 318 322 327 332 329 331 324 323 323 324 325 323 317 308 302 291 277
26 16 16 9 1 2 10 15 27 31 24 16 11 4 356 360 359 355 351 346 342 335 330 325 321 323 327 336 335 328 322 321 314 317 326 323 319 312 310 304 300 295 284
4 11 6 355 351 351 358 7 16 28 20 9 356 346 340 347 349 351 347 347 344 334 325 317 316 316 316 316 316 315 316 319 316 327 325 311 312 305 301 292 299 299 288
247 315 324 339 327 328 344 350 356 21 9 343 336 336 337 339 342 324 328 334 334 331 325 312 304 302 303 308 307 304 302 300 293 301 307 296 300 299 296 297 301 301 295
224 245 279 296 304 316 333 337 339 2 327 313 310 305 305 308 314 317 312 313 306 307 309 303 282 286 293 295 290 292 294 294 286 282 284 286 295 291 296 289 294 297 299
229 243 258 273 287 302 322 323 324 283 288 292 292 296 302 293 310 321 320 311 307 302 311 311 310 309 312 314 314 310 307 304 298 294 277 278 295 301 292 284 285 297 301
226 246 271 267 269 283 305 312 314 266 284 288 290 290 304 309 312 316 309 302 302 299 299 305 306 306 305 307 313 306 297 294 296 296 297 304 301 318 305 290 292 299 297